Location: *
(37.9500°N, 27.3666°E)
Time: 15:19:36
(UTC+00:00)

USA 229 - Pass Details

Date: 24 October 2021
Orbit: 946 x 1266 km, 63.4° (Epoch: 25 November)

Event Time Altitude Azimuth Distance (km) Brightness Sun altitude
Rises 15:34:29 0° 184° (S) 3,601 6.7 -3.4°
Reaches altitude 10° 15:37:11 10° 176° (S) 2,673 5.9 -3.9°
Maximum altitude 15:42:45 35° 112° (ESE) 1,526 4.2 -5.0°
Drops below altitude 10° 15:48:35 10° 49° (NE) 2,817 5.4 -6.2°
Sets 15:51:30 0° 41° (NE) 3,821 6.1 -6.7°
